Weather History for KGOO - July, 2013

Change the Weather History Date:

Sunday, July 28, 2013

  Actual Average (KBLU) Record (KBLU)
Temperature  
Mean Temperature 80 °F -  
Max Temperature 86 °F 79 °F 87 °F (2003)
Min Temperature 73 °F 61 °F 52 °F (1955)
Cooling Degree Days 14    
Growing Degree Days 30 (Base 50)    
Moisture  
Dew Point 47 °F    
Average Humidity 32    
Maximum Humidity 44    
Minimum Humidity 18    
Precipitation  
Precipitation 0.00 in - - ()
Sea Level Pressure  
Sea Level Pressure 29.93 in    
Wind  
Wind Speed 6 mph (SE)    
Max Wind Speed 10 mph    
Max Gust Speed -    
Visibility 10 miles    
Events      
Averages and records for this station are not official NWS values.
T = Trace of Precipitation, MM = Missing Value Source: NWS Daily Summary

Daily Weather History Graph

Daily Weather History Graph

Search for Another Location

Airport or City:

Trip Planner

Search our weather history database for the weather conditions in past years. The results will help you decide how hot, cold, wet, or windy it might be!

Date:

Astronomy

Jul. 28, 2013 Rise Set
Actual Time 6:00 AM PDT 8:19 PM PDT
Civil Twilight 5:30 AM PDT 8:49 PM PDT
Nautical Twilight 4:53 AM PDT 9:26 PM PDT
Astronomical Twilight 4:12 AM PDT 10:07 PM PDT
Moon 11:47 PM PDT (7/28) 12:45 PM PDT (7/28)
Length of Visible Light 15h 18m
Length of Day
14h 18m
Waning Gibbous, 60% of the Moon is Illuminated
Jul 28
Waning Gibbous
Jul 29
Last Quarter
Aug 6
New
Aug 14
First Quarter
Aug 20
Full

Hourly Weather History & Observations

Time (PDT) Temp. Dew Point Humidity Pressure Visibility Wind Dir Wind Speed Gust Speed Precip Events Conditions
12:00 AM 75.2 °F 46.4 °F 36% 29.98 in 10.0 mi ESE 6.9 mph - N/A   Clear
12:20 AM 77.0 °F 46.4 °F 34% 29.97 in 10.0 mi ESE 6.9 mph - N/A   Clear
12:40 AM 77.0 °F 46.4 °F 34% 29.97 in 10.0 mi East 6.9 mph - N/A   Clear
1:00 AM 77.0 °F 46.4 °F 34% 29.97 in 10.0 mi ESE 8.1 mph - N/A   Clear
1:20 AM 77.0 °F 46.4 °F 34% 29.96 in 10.0 mi East 8.1 mph - N/A   Clear
1:40 AM 77.0 °F 46.4 °F 34% 29.96 in 10.0 mi East 6.9 mph - N/A   Clear
2:00 AM 77.0 °F 46.4 °F 34% 29.96 in 10.0 mi East 6.9 mph - N/A   Clear
2:20 AM 77.0 °F 46.4 °F 34% 29.95 in 10.0 mi East 6.9 mph - N/A   Clear
2:40 AM 77.0 °F 46.4 °F 34% 29.95 in 10.0 mi East 6.9 mph - N/A   Clear
3:00 AM 77.0 °F 46.4 °F 34% 29.94 in 10.0 mi East 6.9 mph - N/A   Clear
3:20 AM 77.0 °F 46.4 °F 34% 29.94 in 10.0 mi East 6.9 mph - N/A   Clear
3:40 AM 77.0 °F 46.4 °F 34% 29.94 in 10.0 mi East 6.9 mph - N/A   Clear
4:00 AM 77.0 °F 46.4 °F 34% 29.93 in 10.0 mi East 6.9 mph - N/A   Clear
4:20 AM 77.0 °F 46.4 °F 34% 29.93 in 10.0 mi East 6.9 mph - N/A   Clear
4:40 AM 77.0 °F 46.4 °F 34% 29.92 in 10.0 mi East 6.9 mph - N/A   Clear
5:00 AM 75.2 °F 46.4 °F 36% 29.92 in 10.0 mi East 6.9 mph - N/A   Clear
5:20 AM 75.2 °F 44.6 °F 34% 29.92 in 10.0 mi East 8.1 mph - N/A   Clear
5:40 AM 75.2 °F 44.6 °F 34% 29.92 in 10.0 mi East 6.9 mph - N/A   Clear
6:00 AM 75.2 °F 44.6 °F 34% 29.92 in 10.0 mi ESE 4.6 mph - N/A   Clear
6:20 AM 73.4 °F 44.6 °F 36% 29.92 in 10.0 mi ESE 5.8 mph - N/A   Clear
6:40 AM 75.2 °F 44.6 °F 34% 29.93 in 10.0 mi ESE 5.8 mph - N/A   Clear
7:00 AM 77.0 °F 44.6 °F 32% 29.93 in 10.0 mi ESE 5.8 mph - N/A   Clear
7:15 AM 77.0 °F 44.6 °F 32% 29.93 in 10.0 mi ESE 5.8 mph - N/A   Clear
8:40 AM 77.0 °F 50.0 °F 39% 29.94 in 10.0 mi SSE 3.5 mph - N/A   Clear
9:00 AM 78.8 °F 50.0 °F 36% 29.94 in 10.0 mi SE 4.6 mph - N/A   Clear
9:20 AM 78.8 °F 53.6 °F 42% 29.94 in 10.0 mi SSE 4.6 mph - N/A   Clear
9:40 AM 80.6 °F 48.2 °F 32% 29.94 in 10.0 mi SSE 5.8 mph - N/A   Clear
10:00 AM 82.4 °F 46.4 °F 28% 29.94 in 10.0 mi SE 3.5 mph - N/A   Clear
10:20 AM 82.4 °F 46.4 °F 28% 29.94 in 10.0 mi Calm Calm - N/A   Clear
10:40 AM 82.4 °F 48.2 °F 30% 29.95 in 10.0 mi SSW 4.6 mph - N/A   Clear
11:00 AM 82.4 °F 48.2 °F 30% 29.95 in 10.0 mi SSW 4.6 mph - N/A   Clear
11:20 AM 84.2 °F 48.2 °F 29% 29.95 in 10.0 mi SW 8.1 mph - N/A   Clear
11:40 AM 84.2 °F 48.2 °F 29% 29.95 in 10.0 mi Calm Calm - N/A   Clear
12:00 PM 84.2 °F 46.4 °F 27% 29.95 in 10.0 mi South 3.5 mph - N/A   Clear
12:20 PM 84.2 °F 46.4 °F 27% 29.95 in 10.0 mi SW 6.9 mph - N/A   Clear
12:40 PM 84.2 °F 46.4 °F 27% 29.94 in 10.0 mi SW 10.4 mph - N/A   Clear
1:00 PM 86.0 °F 46.4 °F 25% 29.94 in 10.0 mi SSW 8.1 mph - N/A   Clear
1:20 PM 86.0 °F 46.4 °F 25% 29.94 in 10.0 mi Calm Calm - N/A   Clear
1:40 PM 86.0 °F 46.4 °F 25% 29.94 in 9.0 mi WSW 5.8 mph - N/A   Clear
2:00 PM 86.0 °F 46.4 °F 25% 29.94 in 10.0 mi SW 10.4 mph - N/A   Clear
2:20 PM 86.0 °F 46.4 °F 25% 29.94 in 10.0 mi South 3.5 mph - N/A   Clear
2:40 PM 84.2 °F 44.6 °F 25% 29.93 in 10.0 mi SW 6.9 mph - N/A   Clear
3:00 PM 86.0 °F 44.6 °F 23% 29.92 in 10.0 mi SW 8.1 mph - N/A   Clear
3:20 PM 86.0 °F 42.8 °F 22% 29.92 in 9.0 mi SW 10.4 mph - N/A   Clear
3:40 PM 86.0 °F 37.4 °F 18% 29.91 in 10.0 mi SW 6.9 mph - N/A   Clear
4:00 PM 86.0 °F 42.8 °F 22% 29.91 in 9.0 mi SW 3.5 mph - N/A   Clear
4:20 PM 86.0 °F 41.0 °F 20% 29.91 in 10.0 mi SSW 4.6 mph - N/A   Clear
4:40 PM 86.0 °F 41.0 °F 20% 29.91 in 10.0 mi SW 4.6 mph - N/A   Clear
5:00 PM 86.0 °F 42.8 °F 22% 29.90 in 10.0 mi SW 3.5 mph - N/A   Clear
5:20 PM 86.0 °F 46.4 °F 25% 29.90 in 10.0 mi SSW 3.5 mph - N/A   Clear
5:40 PM 86.0 °F 46.4 °F 25% 29.90 in 10.0 mi SE 4.6 mph - N/A   Clear
6:00 PM 84.2 °F 46.4 °F 27% 29.90 in 10.0 mi Calm Calm - N/A   Clear
6:20 PM 84.2 °F 46.4 °F 27% 29.90 in 10.0 mi Calm Calm - N/A   Clear
6:40 PM 84.2 °F 46.4 °F 27% 29.90 in 10.0 mi Calm Calm - N/A   Clear
7:00 PM 82.4 °F 46.4 °F 28% 29.90 in 10.0 mi Calm Calm - N/A   Clear
7:20 PM 82.4 °F 46.4 °F 28% 29.90 in 10.0 mi Calm Calm - N/A   Clear
7:40 PM 80.6 °F 48.2 °F 32% 29.90 in 10.0 mi Calm Calm - N/A   Clear
8:00 PM 80.6 °F 48.2 °F 32% 29.90 in 10.0 mi Calm Calm - N/A   Clear
8:20 PM 77.0 °F 48.2 °F 36% 29.90 in 10.0 mi Calm Calm - N/A   Clear
8:40 PM 75.2 °F 50.0 °F 41% 29.90 in 10.0 mi Calm Calm - N/A   Clear
9:00 PM 75.2 °F 50.0 °F 41% 29.91 in 10.0 mi Calm Calm - N/A   Clear
9:20 PM 75.2 °F 50.0 °F 41% 29.91 in 10.0 mi Calm Calm - N/A   Clear
9:40 PM 75.2 °F 50.0 °F 41% 29.92 in 10.0 mi Calm Calm - N/A   Clear
10:00 PM 73.4 °F 50.0 °F 44% 29.92 in 10.0 mi Calm Calm - N/A   Clear
10:20 PM 73.4 °F 50.0 °F 44% 29.92 in 10.0 mi Calm Calm - N/A   Clear
10:40 PM 73.4 °F 50.0 °F 44% 29.92 in 10.0 mi ESE 5.8 mph - N/A   Clear
11:00 PM 73.4 °F 50.0 °F 44% 29.92 in 10.0 mi ESE 5.8 mph - N/A   Clear
11:20 PM 73.4 °F 50.0 °F 44% 29.92 in 10.0 mi ESE 5.8 mph - N/A   Clear
11:40 PM 73.4 °F 48.2 °F 41% 29.92 in 10.0 mi East 6.9 mph - N/A   Clear